Home > Weather > Brilon > Past weeks

Flag for Germany Past Weather in Brilon, North Rhine-Westphalia, Germany — Yesterday and Last 2 Weeks

Now
55 °F

Drizzle. More clouds than sun.


Feels Like: 53 °F
Forecast: 49 / 60 °F
Wind: 10 mph from West

Location: Paderborn / Lippstadt

Current Time: Jul 2, 2016 at 7:49:29 AM

Latest Report: Jul 2, 2016 at 6:50 AM


Visibility: 6 mi

Pressure: 29.89 "Hg

Humidity: 88%

Dew Point: 52 °F

Location of BrilonLocation

Past Weather in Brilon — Graph

°F

Brilon Temperature Yesterday

Maximum temperature yesterday: 73 °F (at 2:50 PM)
Minimum temperature yesterday: 61 °F (at 1:20 AM)
Average temperature yesterday: 67 °F

High & Low Weather Summary for the Past Weeks

 TemperatureHumidityPressure
High90 °F (Jun 23, 2:50 PM)100% (Jun 19, 8:50 AM)30.24 "Hg (Jun 19, 8:50 AM)
Low48 °F (Jun 20, 12:50 AM)38% (Jun 23, 2:20 PM)29.59 "Hg (Jun 17, 6:20 AM)
Average64 °F75%30.02 "Hg
* Reported Jun 17 6:20 AM — Jul 2 6:20 AM, Brilon, Weather by CustomWeather, © 2016

Note: Actual official high and low records may vary slightly from our data, if they occured in-between our weather recording intervals... More about our weather records

Advertising

Brilon Weather History for the Previous 24 Hours

Scroll right to see more
 ConditionsComfort  
Time TempWeatherWind HumidityBarometerVisibility
6:20 AM
Sat, Jul 2
55 °FDrizzle. Low clouds.6 mph94%29.89 "Hg5 mi
5:50 AM55 °FSprinkles. Partly cloudy.9 mph100%29.86 "Hg4 mi
5:20 AM57 °FRain showers. Partly cloudy.8 mph94%29.86 "Hg4 mi
4:50 AM61 °FScattered showers. Partly cloudy.14 mph88%29.83 "HgN/A
4:20 AM66 °FClear.14 mph68%29.83 "Hg10 mi
3:50 AM66 °FClear.13 mph68%29.83 "Hg10 mi
3:20 AM66 °FClear.10 mph68%29.83 "Hg10 mi
2:50 AM66 °FPassing clouds.10 mph68%29.86 "HgN/A
2:20 AM66 °FPassing clouds.9 mph73%29.86 "HgN/A
1:50 AM66 °FClear.12 mph73%29.86 "Hg10 mi
1:20 AM66 °FClear.12 mph73%29.86 "Hg10 mi
12:50 AM66 °FClear.16 mph73%29.86 "Hg10 mi
12:20 AM68 °FClear.13 mph64%29.86 "Hg10 mi
11:50 PM
Fri, Jul 1
68 °FClear.13 mph64%29.89 "Hg10 mi
11:20 PM68 °FClear.9 mph64%29.89 "Hg10 mi
10:50 PM68 °FClear.9 mph64%29.89 "Hg10 mi
10:20 PM66 °FSunny.10 mph68%29.89 "Hg10 mi
9:50 PM68 °FSunny.9 mph64%29.89 "Hg10 mi
9:20 PM68 °FSunny.12 mph64%29.92 "Hg10 mi
8:50 PM68 °FSunny.15 mph64%29.92 "Hg10 mi
8:20 PM68 °FSunny.13 mph64%29.92 "Hg10 mi
7:50 PM68 °FSunny.17 mph64%29.92 "Hg10 mi
7:20 PM70 °FPassing clouds.16 mph60%29.92 "HgN/A
6:50 PM70 °FSunny.15 mph60%29.92 "Hg10 mi
6:20 PM70 °FSunny.17 mph60%29.92 "Hg10 mi
5:50 PM72 °FSunny.15 mph57%29.92 "Hg10 mi
5:20 PM72 °FSunny.14 mph61%29.92 "Hg10 mi
4:50 PM72 °FPartly sunny.18 mph57%29.92 "HgN/A
4:20 PM72 °FBroken clouds.16 mph61%29.92 "HgN/A
3:50 PM72 °FBroken clouds.22 mph61%29.92 "HgN/A
3:20 PM72 °FBroken clouds.18 mph61%29.92 "HgN/A
2:50 PM73 °FBroken clouds.18 mph61%29.95 "HgN/A
2:20 PM72 °FMore clouds than sun.17 mph61%29.95 "HgN/A
1:50 PM72 °FScattered clouds.18 mph61%29.95 "HgN/A
1:20 PM70 °FBroken clouds.20 mph64%29.95 "HgN/A
12:50 PM72 °FBroken clouds.18 mph61%29.95 "HgN/A
12:20 PM70 °FBroken clouds.14 mph69%29.95 "HgN/A
11:50 AM68 °FScattered clouds.14 mph73%29.95 "HgN/A
11:20 AM68 °FScattered clouds.10 mph73%29.95 "HgN/A
10:50 AM68 °FScattered clouds.10 mph73%29.95 "HgN/A
10:20 AM66 °FScattered clouds.14 mph78%29.95 "HgN/A
9:50 AM68 °FScattered clouds.13 mph73%29.95 "HgN/A
9:20 AM66 °FScattered clouds.13 mph78%29.95 "HgN/A
8:50 AM66 °FScattered clouds.8 mph78%29.95 "HgN/A
8:20 AM64 °FScattered clouds.9 mph83%29.95 "HgN/A
7:50 AM64 °FScattered clouds.8 mph83%29.95 "HgN/A
7:20 AM63 °FBroken clouds.7 mph83%29.95 "HgN/A
Weather by CustomWeather, © 2016

See weather overviewHow to use our weather pages